Regional Weather Roundup
Issued by NWS Columbia, SC

Home | Current Version | Previous Version | Text Only | Print | Product List | Glossary On
Versions: 1 2 3 4 5 6 7 8 9 10 11 12 13 14 15 16 17 18 19 20 21 22 23 24 25 26 27
000
ASUS42 KCAE 230510
RWRCAE
REGIONAL WEATHER ROUNDUP
NATIONAL WEATHER SERVICE COLUMBIA SC
100 AM EDT MON OCT 23 2017

NOTE: "FAIR" INDICATES FEW OR NO CLOUDS BELOW 12,000 FEET WITH NO
SIGNIFICANT WEATHER AND/OR OBSTRUCTIONS TO VISIBILITY.

NOT ALL STATIONS ARE QUALITY CONTROLLED BY THE NATIONAL
WEATHER SERVICE. USE DATA WITH CAUTION...ESPECIALLY
DEWPOINT OBSERVATIONS.

SCZ001>056-GAZ040-063>065-077-230600-
...UPSTATE SOUTH CAROLINA...

CITY           SKY/WX    TMP DP  RH WIND       PRES   REMARKS
ANDERSON       CLOUDY    68  64  87 E10       30.16F
LIBERTY        DRIZZLE   64  64 100 NE5       30.18F
SPARTANBURG    CLOUDY    64  63  94 E3        30.20F
CLEMSON        CLOUDY    65  65 100 NE7       30.18F
GREENVILLE     CLOUDY    68  63  84 E5        30.21F
GREENWOOD      CLOUDY    67  66  97 VRB6      30.18F
GREER          CLOUDY    66  65  96 NE5       30.21F
ROCK HILL      CLOUDY    70  63  78 CALM      30.22F
CHESTER        CLOUDY    66  64  94 CALM      30.21F
LAURENS        CLOUDY    66  64  94 SE8G18    30.19F


...CENTRAL SOUTH CAROLINA...

CITY           SKY/WX    TMP DP  RH WIND       PRES   REMARKS
COLUMBIA APT   LGT RAIN  69  69 100 E7        30.17F
COLUMBIA OWENS CLOUDY    69  67  93 E5        30.19F
MCENTIRE ANGB  CLOUDY    68  68 100 E6        30.18F
ORANGEBURG     LGT RAIN  69  68  96 SE5       30.17F FOG
SUMTER SHAW    PTCLDY    67  66  94 E7        30.16F
NEWBERRY       DRIZZLE   66  64  94 E8        30.21F
AIKEN          DRIZZLE   68  68 100 E7        30.20F
BARNWELL         N/A     72  72 100 CALM      30.16F
MANNING        FAIR      68  66  94 MISG      30.18F
CAMDEN         MOCLDY    70  63  78 E7        30.21F
LANCASTER      CLOUDY    68  63  83 SE5       30.21F HAZE
WINNSBORO      CLOUDY    66  64  94 SE8       30.20F


...EASTERN AND COASTAL SOUTH CAROLINA...

CITY           SKY/WX    TMP DP  RH WIND       PRES   REMARKS
MYRTLE BEACH   CLOUDY    74  69  85 SE13      30.21F
N MYRTLE BCH   CLOUDY    74  70  87 SE8G16    30.20F
CONWAY         MOCLDY    66  66 100 CALM      30.21F
MARION         CLOUDY    66  61  82 E3        30.22S HAZE
HARTSVILLE     CLOUDY    66  61  82 E5        30.20F
FLORENCE       LGT RAIN  69  63  81 SE6       30.22S
DARLINGTON     CLOUDY    67  62  84 E6        30.21F
CHARLESTON APT CLOUDY    72  72 100 E6        30.16F
MOUNT PLEASANT MOCLDY    72  72 100 CALM      30.16F FOG
WALTERBORO     LGT RAIN  70  70 100 E3        30.16F
BEAUFORT       MOCLDY    73  73 100 MISG      30.14F


...EASTERN GEORGIA...

CITY           SKY/WX    TMP DP  RH WIND       PRES   REMARKS
AUGUSTA BUSH F LGT RAIN  72  69  90 E5        30.14F FOG
AUGUSTA DANIEL CLOUDY    71  69  93 SE7       30.16F
THOMSON        DRIZZLE   69  68  97 S5        30.19F
WASHINGTON     RAIN      66  66 100 E6        30.14F
CLAXTON        CLOUDY    73  71  96 CALM      30.12F
SYLVANIA       CLOUDY    71  71 100 SE3       30.14F
STATESBORO     RAIN      72  72 100 E6        30.13F
SAVANNAH       CLOUDY    72  71  97 NE5       30.14F


...SOUTHERN NORTH CAROLINA...

CITY           SKY/WX    TMP DP  RH WIND       PRES   REMARKS
CHARLOTTE      CLOUDY    71  61  70 SE12      30.22F
MONROE         CLOUDY    69  61  75 VRB3      30.21F
WADESBORO      PTCLDY    67  60  79 E5        30.21F
RUTHERFORDTON  DRIZZLE   63  63 100 CALM      30.24F
ASHEVILLE      LGT RAIN  62  61  96 SE8       30.23F FOG

$$




USA.gov is the U.S. government's official web portal to all federal, state and local government web resources and services.